TimeCDT,TemperatureF,Dew PointF,Humidity,Sea Level PressureIn,VisibilityMPH,Wind Direction,Wind SpeedMPH,Gust SpeedMPH,PrecipitationIn,Events,Conditions,WindDirDegrees,DateUTC
12:15 AM,67.6,67.6,100,29.84,7.0,NNW,12.7,17.3,0.02,Rain,Rain,330,2013-09-21 05:15:00
12:35 AM,66.7,66.7,100,29.84,5.0,NNW,9.2,-,0.05,Rain,Rain,340,2013-09-21 05:35:00
12:55 AM,66.0,66.0,100,29.84,5.0,NNW,10.4,-,0.08,Rain,Rain,340,2013-09-21 05:55:00
1:15 AM,65.7,65.7,100,29.84,10.0,North,6.9,-,0.01,,Light Drizzle,350,2013-09-21 06:15:00
1:35 AM,65.7,65.7,100,29.84,10.0,NNW,9.2,-,0.01,,Overcast,340,2013-09-21 06:35:00
1:55 AM,65.3,65.1,99,29.84,10.0,North,9.2,-,0.01,,Overcast,350,2013-09-21 06:55:00
2:15 AM,64.8,64.4,99,29.84,10.0,NNW,6.9,-,N/A,,Overcast,340,2013-09-21 07:15:00
2:35 AM,64.4,64.4,100,29.84,10.0,North,5.8,-,N/A,,Light Drizzle,350,2013-09-21 07:35:00
2:55 AM,64.0,63.7,99,29.84,10.0,North,6.9,-,N/A,,Light Drizzle,360,2013-09-21 07:55:00
3:15 AM,63.9,63.7,99,29.84,10.0,NNW,4.6,-,N/A,,Overcast,340,2013-09-21 08:15:00
3:35 AM,63.5,61.9,94,29.84,10.0,NNW,5.8,-,N/A,,Overcast,340,2013-09-21 08:35:00
3:55 AM,62.6,61.2,95,29.84,10.0,North,8.1,-,N/A,,Overcast,350,2013-09-21 08:55:00
4:15 AM,61.7,59.0,91,29.85,10.0,North,5.8,-,N/A,,Scattered Clouds,350,2013-09-21 09:15:00
4:35 AM,60.8,58.8,93,29.85,10.0,Calm,Calm,-,N/A,,Scattered Clouds,0,2013-09-21 09:35:00
4:55 AM,59.9,58.1,94,29.86,10.0,NNW,5.8,-,N/A,,Scattered Clouds,340,2013-09-21 09:55:00
5:15 AM,59.4,57.2,93,29.86,10.0,Calm,Calm,-,N/A,,Clear,0,2013-09-21 10:15:00
5:35 AM,58.5,57.2,96,29.86,10.0,NNW,3.5,-,N/A,,Clear,340,2013-09-21 10:35:00
5:55 AM,58.1,56.5,94,29.87,10.0,Calm,Calm,-,N/A,,Clear,0,2013-09-21 10:55:00
6:15 AM,57.4,56.3,96,29.88,10.0,North,3.5,-,N/A,,Clear,350,2013-09-21 11:15:00
6:35 AM,56.7,56.1,98,29.88,10.0,Calm,Calm,-,N/A,,Clear,0,2013-09-21 11:35:00
6:55 AM,56.3,55.8,98,29.89,10.0,Calm,Calm,-,N/A,,Clear,0,2013-09-21 11:55:00
7:15 AM,56.5,55.8,97,29.90,10.0,Calm,Calm,-,N/A,,Clear,0,2013-09-21 12:15:00
7:35 AM,57.2,56.3,97,29.91,10.0,Calm,Calm,-,N/A,,Clear,0,2013-09-21 12:35:00
7:55 AM,58.3,56.8,95,29.91,10.0,Calm,Calm,-,N/A,,Clear,0,2013-09-21 12:55:00
8:15 AM,59.0,56.8,93,29.91,10.0,North,3.5,-,N/A,,Clear,350,2013-09-21 13:15:00
8:35 AM,59.2,57.2,93,29.92,10.0,North,3.5,-,N/A,,Clear,350,2013-09-21 13:35:00
8:55 AM,60.8,57.6,89,29.92,10.0,North,4.6,-,N/A,,Clear,350,2013-09-21 13:55:00
9:15 AM,62.1,56.5,82,29.92,10.0,North,6.9,-,N/A,,Clear,360,2013-09-21 14:15:00
9:35 AM,64.0,54.5,71,29.92,10.0,NNW,8.1,-,N/A,,Clear,340,2013-09-21 14:35:00
9:55 AM,64.8,52.9,65,29.92,10.0,North,9.2,-,N/A,,Clear,360,2013-09-21 14:55:00
10:15 AM,66.0,50.9,58,29.92,10.0,North,15.0,19.6,N/A,,Clear,350,2013-09-21 15:15:00
10:35 AM,66.7,50.4,56,29.92,10.0,North,9.2,20.7,N/A,,Clear,360,2013-09-21 15:35:00
10:55 AM,67.8,50.5,54,29.92,10.0,North,9.2,-,N/A,,Clear,350,2013-09-21 15:55:00
11:15 AM,68.0,49.6,52,29.92,10.0,NNW,10.4,16.1,N/A,,Clear,330,2013-09-21 16:15:00
11:35 AM,68.4,49.8,51,29.92,10.0,NNW,12.7,18.4,N/A,,Clear,330,2013-09-21 16:35:00
11:55 AM,69.1,48.7,48,29.91,10.0,NNW,10.4,17.3,N/A,,Clear,340,2013-09-21 16:55:00
12:15 PM,70.2,49.5,48,29.91,10.0,NNW,12.7,17.3,N/A,,Clear,340,2013-09-21 17:15:00
12:35 PM,70.0,49.3,48,29.91,10.0,North,10.4,-,N/A,,Clear,350,2013-09-21 17:35:00
12:55 PM,71.1,49.6,47,29.91,10.0,North,10.4,-,N/A,,Clear,350,2013-09-21 17:55:00
1:15 PM,71.2,50.4,48,29.90,10.0,NNW,6.9,17.3,N/A,,Clear,340,2013-09-21 18:15:00
1:35 PM,72.0,50.0,46,29.89,10.0,NW,9.2,-,N/A,,Clear,310,2013-09-21 18:35:00
1:55 PM,72.0,50.2,46,29.88,10.0,NNW,9.2,-,N/A,,Clear,330,2013-09-21 18:55:00
2:15 PM,72.3,49.1,44,29.88,10.0,NW,9.2,-,N/A,,Clear,320,2013-09-21 19:15:00
2:35 PM,72.9,48.9,43,29.88,10.0,NW,6.9,-,N/A,,Clear,320,2013-09-21 19:35:00
2:55 PM,72.7,48.7,43,29.88,10.0,NW,10.4,-,N/A,,Scattered Clouds,320,2013-09-21 19:55:00
3:15 PM,73.0,47.8,41,29.87,10.0,NNW,13.8,17.3,N/A,,Scattered Clouds,340,2013-09-21 20:15:00
3:35 PM,72.9,47.7,41,29.86,10.0,North,10.4,-,N/A,,Clear,360,2013-09-21 20:35:00
3:55 PM,73.2,47.8,41,29.86,10.0,North,12.7,17.3,N/A,,Clear,360,2013-09-21 20:55:00
4:15 PM,73.2,47.7,40,29.86,10.0,North,9.2,-,N/A,,Clear,360,2013-09-21 21:15:00
4:35 PM,72.7,48.4,42,29.86,10.0,NW,10.4,-,N/A,,Clear,320,2013-09-21 21:35:00
4:55 PM,72.5,46.8,40,29.86,10.0,North,9.2,-,N/A,,Clear,350,2013-09-21 21:55:00
5:15 PM,72.0,47.5,42,29.87,10.0,North,9.2,-,N/A,,Clear,350,2013-09-21 22:15:00
5:35 PM,71.2,47.8,43,29.87,10.0,North,6.9,-,N/A,,Clear,360,2013-09-21 22:35:00
5:55 PM,70.2,49.1,47,29.88,10.0,North,5.8,-,N/A,,Clear,10,2013-09-21 22:55:00
6:15 PM,68.7,48.0,48,29.87,10.0,North,4.6,-,N/A,,Clear,360,2013-09-21 23:15:00
6:35 PM,67.3,48.9,52,29.88,10.0,North,3.5,-,N/A,,Clear,360,2013-09-21 23:35:00
6:55 PM,64.0,50.2,61,29.88,10.0,Calm,Calm,-,N/A,,Clear,0,2013-09-21 23:55:00
7:15 PM,62.1,51.6,69,29.88,10.0,Calm,Calm,-,N/A,,Clear,0,2013-09-22 00:15:00
7:35 PM,60.6,52.0,73,29.89,10.0,Calm,Calm,-,N/A,,Clear,0,2013-09-22 00:35:00
7:55 PM,58.6,52.2,79,29.89,10.0,Calm,Calm,-,N/A,,Clear,0,2013-09-22 00:55:00
8:15 PM,59.2,52.3,78,29.90,10.0,Calm,Calm,-,N/A,,Clear,0,2013-09-22 01:15:00
8:35 PM,57.7,52.2,82,29.90,10.0,Calm,Calm,-,N/A,,Clear,0,2013-09-22 01:35:00
8:55 PM,58.1,52.0,80,29.90,10.0,Calm,Calm,-,N/A,,Clear,0,2013-09-22 01:55:00
9:15 PM,56.8,51.8,83,29.91,10.0,Calm,Calm,-,N/A,,Clear,0,2013-09-22 02:15:00
9:35 PM,55.2,51.6,88,29.91,10.0,Calm,Calm,-,N/A,,Clear,0,2013-09-22 02:35:00
9:55 PM,55.2,54.5,97,29.91,10.0,Calm,Calm,-,N/A,,Clear,0,2013-09-22 02:55:00
10:15 PM,54.7,54.3,99,29.91,10.0,Calm,Calm,-,N/A,,Clear,0,2013-09-22 03:15:00
10:35 PM,54.3,54.0,99,29.91,10.0,Calm,Calm,-,N/A,,Clear,0,2013-09-22 03:35:00
10:55 PM,54.5,54.3,99,29.91,10.0,Calm,Calm,-,N/A,,Clear,0,2013-09-22 03:55:00
11:15 PM,54.5,54.1,99,29.91,10.0,Calm,Calm,-,N/A,,Clear,0,2013-09-22 04:15:00
11:35 PM,55.4,51.6,87,29.91,10.0,Calm,Calm,-,N/A,,Clear,0,2013-09-22 04:35:00
11:55 PM,55.4,50.9,85,29.91,10.0,Calm,Calm,-,N/A,,Clear,0,2013-09-22 04:55:00